Powrót do katalogu

STARLINK-4809

AktywnyŁącznośćVLEO
NORAD 53857·PAYLOAD·🇺🇸 United States

Wystrzelony Sep 19, 2022 z Cape Canaveral Space Force Station

Loading…

Następne Przeloty (najbliższe 24 godziny)

TLE

ŚwieżeSource: CelesTrak SupGP

Epoka: Sep 15, 2026, 02:46 UTC

1 53857C 22114AR  26258.11576389  .00046854  00000+0  15068-2 0  2587
2 53857  53.1584 149.2182 0001005  80.3243  38.2027 15.31676147    13

Śledź STARLINK-4809 w czasie rzeczywistym z AllMySat

Download on the App Store